Location: Huntsville
(34.7300°N, 86.5860°W)
Time: 23:16:15
(UTC-05:00)

Daily predictions for brighter satellites

Satellite Brightness Start Highest point End
(mag) Time Altitude Azimuth Time Altitude Azimuth Time Altitude Azimuth
CZ-2C R/B 3.7 18:20:24 10° NNE 18:24:54 88° W 18:29:18 10° SSW
Cosmos 158 Rocket 3.9 18:20:13 10° SSW 18:25:15 82° ESE 18:30:27 10° NNE
Cosmos 2098 Rocket 4.1 18:21:14 10° SSE 18:25:24 34° E 18:30:31 10° NNE
Cosmos 1743 Rocket 3.8 18:21:41 10° N 18:26:05 79° W 18:30:30 10° S
SKYMED 2 4.0 18:23:04 10° NNE 18:27:12 42° E 18:31:19 10° S
Cosmos 1300 4.1 18:28:30 10° SE 18:31:12 19° E 18:33:56 10° NE
Cosmos 1842 Rocket 4.4 18:27:48 10° SSW 18:32:10 56° W 18:36:33 10° N
GP-B 3.1 18:29:27 10° N 18:33:54 90° SW 18:38:20 10° S
Cosmos 2360 Rocket 2.5 18:28:30 10° NNW 18:34:10 74° WSW 18:39:48 10° SSE
APEX 3.7 18:31:36 10° SW 18:34:45 46° WNW 18:37:30 10° N
RESURS DK-1 3.2 18:31:09 10° NNW 18:35:13 57° WSW 18:39:14 10° S
BREEZE-M DEB (TANK) 0.9 18:33:12 10° NW 18:35:15 62° NE 18:37:28 10° ESE
Cosmos 1727 Rocket 4.1 18:29:32 10° N 18:35:55 87° W 18:42:13 10° S
Atlas Centaur 2 3.2 18:32:54 10° WSW 18:36:22 27° SSW 18:40:26 10° SE
Cosmos 1048 Rocket 4.0 18:32:18 10° SSW 18:37:26 87° ESE 18:42:34 10° NNE
Gbstr 26 Del rocket 4.2 18:33:02 10° NNW 18:37:42 38° NE 18:43:23 10° ESE
ALOS 3.2 18:34:39 10° SE 18:38:34 27° ENE 18:42:29 10° NNE
FENGYUN 3A 4.4 18:36:16 10° SE 18:40:57 31° ENE 18:45:40 10° N
CORIOLIS 4.5 18:37:09 10° S 18:42:31 75° WSW 18:47:57 10° NNW
Cosmos 1500 Rocket 4.2 18:41:32 10° NNW 18:45:47 60° W 18:50:01 10° S
Cosmos 1420 Rocket 4.0 18:42:10 10° NNW 18:47:30 87° ENE 18:52:45 10° SSE
Cosmos 2219 3.4 18:44:52 10° SSW 18:50:37 82° WNW 18:56:24 10° NNE
ERS-2 2.8 18:47:48 10° S 18:51:26 59° W 18:55:06 10° NNW
COSMOS 2428 2.7 18:46:11 10° NNW 18:51:50 66° ENE 18:57:29 10° SSE
OAO 1 Rocket 4.4 18:47:57 10° W 18:53:16 87° N 18:57:30 16° E
Cosmos 2333 Rocket 2.8 18:49:16 10° N 18:54:30 35° ENE 18:59:42 10° SE
Cosmos 2297 Rocket 3.0 18:50:46 10° SSE 18:55:33 29° ESE 19:00:21 10° NE
Cosmos 1726 2.0 18:52:46 10° S 18:56:26 69° E 19:00:06 10° NNE
Hubble Space Telescope 2.2 18:54:19 10° SW 18:57:52 28° S 19:00:30 15° ESE
DELTA 2 R/B (1) 3.8 18:53:24 10° WNW 18:58:56 68° SSW 19:04:19 11° SE
MOS 1 4.3 18:58:40 10° SSE 19:04:20 89° WSW 19:10:03 10° NNW
NOAA 12 4.1 18:59:18 10° SSE 19:04:28 58° ENE 19:09:42 10° N
Sich 1 3.4 19:02:33 10° N 19:06:43 41° E 19:10:53 10° SSE
Cosmos 2082 4.2 19:01:45 10° S 19:06:56 36° ESE 19:12:07 10° NE
USA 267 4.4 19:04:43 18° E 19:07:07 21° ESE 19:11:51 10° S
MONITOR-E 4.4 19:05:25 10° S 19:08:28 70° WSW 19:11:33 10° NNW
Thor Agena Rocket 3.6 19:08:41 10° NNE 19:13:37 51° E 19:18:29 10° S
METEOR-M 4.4 19:08:38 10° S 19:13:57 73° WSW 19:19:18 10° NNW
IUS-17 SRM-1 4.4 19:12:50 10° WSW 19:14:21 14° SSW 19:15:35 10° SSE
COSMO-SKYMED 1 3.6 19:11:02 10° N 19:15:14 48° WNW 19:19:23 10° SSW
CZ-4 R/B 4.1 19:16:19 10° SSW 19:19:41 23° W 19:23:02 10° NW
Cosmos 2219 Rocket 2.1 19:14:33 10° NNW 19:20:09 70° ENE 19:25:45 10° SSE
Cosmos 1805 Rocket 3.8 19:20:45 10° N 19:25:09 73° W 19:29:33 10° S
FengYun 1-2 T 4.4 19:20:29 10° SE 19:25:42 46° ENE 19:30:55 10° N
BREEZE-M DEB (TANK) 4.4 19:19:04 10° WNW 19:27:36 29° NNW 19:29:58 19° NNE
CZ-4C R/B 3.7 19:23:05 10° WSW 19:27:42 32° NW 19:32:52 10° NNE
Aureole 2 Rocket 3.1 19:27:08 10° NNW 19:31:08 66° WSW 19:35:10 10° S
Cosmos 2228 Rocket 3.3 19:27:43 10° SSE 19:32:02 47° E 19:34:24 25° NNE
Cosmos 1328 Rocket 3.4 19:29:29 10° S 19:33:49 63° E 19:38:09 10° NNE
Cosmos 1666 Rocket 3.4 19:30:25 10° N 19:34:45 88° E 19:39:03 10° S
Meteor 2-2 Rocket 4.1 19:29:54 10° S 19:35:35 79° E 19:41:14 10° N
Cosmos 1633 Rocket 2.9 19:34:04 10° N 19:38:31 79° E 19:42:55 10° S
BREEZE-M R/B 3.5 19:36:12 10° W 19:38:37 35° NNW 19:39:11 32° N
Meteor 1-27 4.2 19:40:51 10° S 19:46:23 56° E 19:52:03 10° NNE
Cosmos 494 Rocket 4.4 19:42:29 10° SSW 19:47:32 60° WNW 19:52:35 10° N
Cosmos 2084 3.2 19:46:29 10° NW 19:50:19 78° WSW 19:50:20 78° SW
H-2A R/B 3.1 19:55:30 59° NNW 19:55:30 59° NNW 19:58:46 10° NNW
In-Cosmos 22 Rocket 4.3 19:50:14 10° N 19:56:03 82° W 20:01:52 10° S
Delta 2 Rocket 4.2 19:53:46 10° W 19:56:55 37° SW 19:56:55 37° SW
Cosmos 2237 Rocket 2.0 19:53:20 10° NNW 19:59:03 78° ENE 20:00:17 56° SE
Cosmos 2227 Rocket 2.8 19:56:42 10° SW 20:02:13 56° WNW 20:07:49 10° NNE
MOS 1-B Rocket 4.0 20:03:12 53° NE 20:03:12 53° NE 20:08:33 10° N
Cosmos 1110 Rocket 4.3 19:58:10 10° NNW 20:03:25 65° WSW 20:07:00 20° S
SL-16 R/B 3.6 20:07:20 10° N 20:09:55 25° NNE 20:09:55 25° NNE
USA 32 4.0 20:08:59 10° N 20:13:51 76° NNW 20:13:51 76° NNW
ALOS 4.5 20:12:06 10° SSW 20:15:54 25° W 20:19:43 10° NW
Cosmos 1980 4.1 20:18:11 10° NNW 20:23:42 58° WSW 20:24:57 47° SSW
Atlas Centaur 2 4.4 20:23:23 10° SW 20:24:55 11° SSW 20:25:37 11° SSW
Meteor 2-3 Rocket 4.4 20:31:22 10° NNW 20:35:42 50° NW 20:35:42 50° NW
Cosmos 2333 Rocket 4.0 20:33:45 10° NW 20:38:34 28° WSW 20:43:22 10° SSW
Hubble Space Telescope 3.5 20:34:57 10° WSW 20:35:51 15° WSW 20:35:51 15° WSW
Cosmos 2297 Rocket 3.7 20:34:24 10° SW 20:39:26 33° WNW 20:42:52 18° N
BREEZE-M DEB (TANK) 4.1 20:34:03 10° NW 20:42:21 48° NNW 20:42:21 48° NNW
USA 267 3.7 20:52:08 54° SW 20:52:08 54° SW 20:57:01 10° SW
Centaur D AC-29 4.2 21:08:32 10° WSW 21:08:57 11° WSW 21:08:57 11° WSW
